Temp
24 24 23 23 24 24 25 27 28 28 28 28 29 29 28 27 26 25 21 22 23 22 22 21 21 21 21 22 22 22 22 23 23 23 23 23 22 22 22 21 21 21 21 21 21 21 21 21 21
25 24 23 22 24 25 25 26 27 28 29 28 30 29 28 25 23 21 21 21 23 23 22 21 21 21 21 21 21 21 21 21 22 22 22 21 21 21 22 21 21 21 21 21 21 21 21 21 21
25 25 24 23 23 25 26 26 28 29 29 29 29 29 27 23 23 22 22 21 23 22 22 21 21 21 21 20 21 21 21 21 21 22 21 21 22 21 22 21 21 21 21 21 21 21 21 21 21
26 25 23 25 27 28 28 28 29 30 30 27 29 27 25 24 22 22 22 21 22 22 22 21 21 21 21 21 21 21 21 21 21 21 21 21 22 21 21 21 21 21 21 21 21 22 21 21 21
26 25 25 27 28 29 28 29 29 28 28 28 28 26 24 24 23 21 21 21 22 22 22 21 22 21 21 21 21 21 21 21 21 21 21 21 21 21 21 21 21 21 21 21 21 21 22 21 21
25 25 27 27 29 30 29 29 29 28 28 28 26 25 23 22 21 20 21 21 23 22 22 22 22 21 21 21 21 21 21 21 21 21 21 21 21 21 21 21 21 21 21 21 21 21 21 22 21
27 25 27 29 29 29 29 28 28 27 26 27 27 24 22 22 21 21 21 21 22 22 22 22 21 21 21 21 21 21 21 21 21 21 21 21 21 21 21 21 21 21 21 21 21 21 21 21 21
26 26 30 30 29 30 29 29 28 28 27 27 27 24 22 22 21 21 21 21 21 22 22 22 22 22 21 21 21 21 21 21 21 21 21 21 21 21 21 21 21 21 21 21 21 20 20 20 21
28 26 28 31 30 30 29 29 29 29 27 28 27 25 24 22 21 21 20 20 21 21 22 22 22 21 22 21 21 21 21 21 21 21 21 21 21 21 21 21 21 21 21 21 21 21 20 20 20
27 26 29 31 30 29 29 29 28 28 27 27 26 25 23 22 21 21 20 21 20 21 21 22 22 22 22 22 21 21 21 21 21 23 22 22 22 21 21 21 21 21 21 21 21 21 21 20 20
29 29 31 33 33 31 29 30 29 27 26 26 25 23 23 22 21 21 21 21 21 20 21 21 22 22 22 21 22 21 22 22 22 22 22 22 22 22 21 22 22 22 21 22 21 21 21 20 20
31 32 32 33 33 32 30 30 29 28 28 28 25 24 23 22 22 21 21 21 20 20 20 21 22 22 22 22 22 22 22 22 22 22 22 22 22 22 22 22 22 22 21 21 21 21 21 21 21
32 33 33 32 32 32 30 29 29 28 27 27 26 25 24 23 23 22 22 21 21 21 21 21 22 22 22 22 23 23 23 23 23 23 22 22 22 22 22 22 22 22 21 21 21 21 21 21 21
32 30 31 33 32 32 31 29 29 28 27 26 25 24 24 24 23 22 22 22 21 23 22 21 22 22 22 23 23 23 23 23 23 23 23 23 22 22 22 22 22 22 22 22 21 21 21 21 22
31 31 31 31 32 31 29 30 29 27 27 26 25 25 24 24 24 23 23 22 22 23 23 22 22 23 23 23 23 23 24 24 23 23 23 23 23 23 22 22 22 22 22 21 21 21 21 21 21
29 29 28 31 31 31 31 28 28 25 26 25 25 26 25 24 24 24 23 23 23 22 24 24 23 22 23 23 24 23 23 23 24 23 23 23 23 23 23 23 22 22 22 22 21 21 21 21 22
26 28 30 29 31 30 31 29 25 25 26 25 25 25 25 24 24 24 24 24 23 23 24 22 23 22 23 23 24 23 24 24 24 23 24 24 23 23 23 23 22 22 22 22 21 21 21 21 21
28 28 28 28 30 30 30 27 26 26 26 26 25 24 23 24 24 24 25 25 24 24 23 24 23 23 23 24 23 23 24 24 24 24 24 24 24 24 23 23 23 22 22 22 21 21 21 21 21
29 28 27 28 29 31 27 27 26 26 26 26 25 23 23 23 23 24 25 25 25 24 24 24 23 22 23 23 22 22 23 24 24 24 24 24 24 24 23 23 23 23 23 23 22 21 21 21 21
28 28 27 28 31 30 26 26 26 26 26 26 25 23 22 22 22 23 24 25 25 24 24 24 25 24 24 23 23 24 24 24 24 24 24 24 24 24 24 24 24 23 23 23 21 21 21 21 21
27 27 29 30 30 28 27 25 25 27 26 25 25 24 23 22 22 21 23 24 25 24 24 24 24 23 23 23 23 23 23 23 23 23 24 24 24 24 24 24 24 23 23 24 23 23 22 22 21
29 28 30 31 30 28 28 26 25 24 24 24 24 24 24 23 23 23 22 23 24 24 24 24 23 23 22 22 23 23 24 23 24 24 24 24 24 24 24 24 24 24 23 23 23 23 23 22 22
30 30 31 31 28 27 26 25 24 22 24 23 24 24 25 24 23 23 23 24 24 25 23 23 22 22 22 22 22 25 24 24 24 24 24 24 24 24 24 24 24 24 24 23 23 23 23 22 22
30 31 26 23 24 26 26 26 25 23 23 24 25 24 25 25 23 22 21 22 21 22 23 23 22 20 20 20 21 21 22 23 24 24 24 24 24 24 24 24 24 24 24 23 23 23 23 22 22
28 25 25 27 24 26 23 25 25 24 24 24 24 24 25 23 21 21 20 20 20 20 20 20 21 21 22 20 22 21 24 25 24 25 24 24 24 24 24 24 24 24 24 24 24 23 23 23 23
29 27 24 29 26 25 24 28 28 24 24 23 23 24 24 23 22 21 20 20 20 20 20 21 20 19 20 22 19 22 24 25 24 25 25 24 24 24 24 24 24 24 24 24 24 23 23 24 23
29 28 26 22 22 24 24 25 26 23 23 24 24 25 24 23 21 21 20 20 20 20 22 21 23 21 18 20 21 20 23 25 24 24 24 24 23 24 24 24 24 24 24 24 24 24 23 24 23
31 26 27 23 27 29 25 24 25 28 26 25 26 24 24 22 22 22 20 20 21 21 22 22 21 21 20 21 22 22 23 23 23 23 24 24 24 24 24 23 23 23 24 24 24 23 23 23 24
28 27 23 22 22 25 25 25 24 26 25 27 25 23 22 22 22 22 21 21 20 21 22 22 21 21 22 23 23 22 23 23 22 22 22 23 24 24 23 23 23 23 24 24 23 23 23 23 23
28 28 23 24 27 20 22 25 22 22 24 24 24 22 21 21 22 21 21 21 20 21 21 22 22 21 22 23 23 23 22 23 23 23 22 22 24 24 24 24 23 23 24 24 24 23 24 23 23
Height
774 775 777 777 799 800 813 802 787 787 785 774 770 778 785 783 793 814 792 797 799 806 811 817 820 824 827 829 831 833 835 836 838 839 840 840 841 842 844 845 846 847 847 850 851 852 851 851 852
774 775 776 780 808 816 820 796 793 781 772 771 770 775 781 792 786 791 795 798 800 805 812 816 821 824 827 830 832 834 837 838 839 840 842 843 843 844 845 846 847 848 849 851 853 854 855 855 855
774 775 781 794 808 819 812 793 782 774 769 772 776 774 779 792 790 792 793 798 802 807 813 817 822 825 828 830 833 836 837 839 841 842 843 844 844 845 846 847 848 849 850 852 854 855 857 857 858
773 775 779 802 804 792 790 782 774 774 771 773 774 788 782 785 789 792 794 800 803 808 813 818 822 826 829 831 834 837 839 840 842 843 845 845 845 846 846 847 849 849 851 852 854 856 857 858 859
772 775 800 805 799 786 781 777 776 783 780 777 774 792 793 790 790 792 795 802 805 808 814 818 822 825 829 831 834 837 839 841 843 844 846 846 846 847 847 847 849 850 852 853 854 855 856 858 859
780 782 806 814 797 782 779 774 776 781 781 780 783 790 796 792 792 795 798 803 807 809 814 818 822 825 828 831 834 836 838 841 843 844 846 846 846 846 847 848 849 850 851 853 854 855 855 857 859
782 794 805 797 797 790 780 772 780 781 784 784 778 795 798 797 796 797 800 805 809 812 815 818 822 826 828 830 833 835 837 840 842 843 845 846 846 846 846 847 849 850 850 852 852 853 854 855 856
777 787 792 790 798 792 772 772 771 775 782 776 778 796 802 792 795 799 803 806 810 812 816 818 821 824 826 829 832 834 836 839 840 842 843 845 846 846 846 846 847 849 850 851 852 852 853 853 854
769 801 805 787 790 784 770 776 771 767 776 776 777 780 780 787 794 797 804 808 811 813 815 818 820 823 826 828 831 833 835 837 839 841 843 844 844 845 845 845 846 847 849 851 851 851 852 853 853
781 803 791 770 772 777 770 771 774 777 778 779 781 781 783 789 793 796 800 805 808 810 814 817 819 822 825 827 830 831 833 836 838 840 842 842 842 844 845 845 844 847 848 849 850 850 851 852 853
777 792 771 763 760 761 768 768 767 777 786 774 779 782 785 790 794 796 799 799 801 807 811 814 818 820 823 825 828 830 832 834 836 839 840 841 842 844 844 844 845 846 847 848 848 849 850 851 852
780 766 762 757 755 760 769 764 770 770 769 761 768 774 780 787 790 792 796 799 802 806 809 812 815 818 821 823 826 829 830 832 834 836 838 839 841 842 843 843 843 844 845 846 847 848 849 849 851
772 766 760 756 755 757 759 768 770 768 762 759 767 773 777 783 786 792 797 801 802 804 807 810 813 816 818 821 824 827 828 829 831 834 836 837 839 840 841 841 842 842 843 844 845 846 847 848 849
767 769 765 755 757 757 765 770 768 765 761 766 768 772 776 779 782 788 791 793 796 799 802 808 810 814 816 818 821 824 826 827 829 832 834 835 837 838 839 840 841 840 840 841 842 844 845 845 846
769 779 766 762 758 762 761 775 777 765 764 772 774 778 780 780 782 781 782 784 788 794 801 805 808 810 814 815 818 821 823 825 827 830 832 834 835 836 838 840 840 839 840 839 841 841 842 842 843
783 782 802 770 762 759 763 794 771 767 770 777 777 778 779 779 779 785 787 790 791 794 795 799 804 808 810 813 816 819 821 823 825 827 830 832 833 834 836 837 839 838 839 839 839 840 840 840 841
801 811 800 789 763 766 769 784 777 771 773 779 780 779 777 779 781 782 785 785 789 789 792 798 800 803 806 810 813 817 819 821 823 826 827 828 830 832 833 835 837 837 837 837 838 838 839 839 840
812 812 803 804 776 771 778 789 782 775 773 776 777 777 775 778 774 777 778 782 785 787 790 792 797 800 804 807 810 814 817 819 820 822 824 826 828 829 831 833 835 835 835 835 837 837 838 838 839
796 805 809 789 772 773 789 791 784 777 776 776 777 776 774 772 769 770 773 776 780 783 786 790 795 798 800 803 807 810 813 815 817 819 821 823 825 827 829 831 833 833 833 834 835 837 837 837 837
800 805 806 785 770 776 794 797 786 779 776 776 777 773 770 768 766 763 763 767 771 776 781 784 786 792 796 799 801 805 808 812 814 817 818 820 822 824 826 828 829 831 832 833 834 834 835 836 836
802 805 796 794 778 781 791 807 799 781 779 774 770 767 765 765 763 758 761 766 770 772 775 778 783 787 792 796 800 802 805 808 812 813 815 817 819 821 823 825 827 829 830 830 831 831 832 833 833
800 780 779 783 791 814 789 833 805 797 792 782 773 768 765 761 759 759 764 767 769 769 771 775 781 784 791 794 798 799 800 802 805 808 811 814 816 818 820 822 824 826 828 829 830 830 830 831 832
787 771 776 777 797 803 808 827 812 805 802 792 777 772 762 760 761 758 762 764 766 768 769 772 779 785 787 795 796 796 799 800 803 806 808 811 813 814 816 818 821 823 825 826 828 828 828 829 830
767 774 790 803 812 831 817 820 816 811 799 788 778 772 768 762 758 755 760 762 765 766 767 770 771 780 784 790 795 794 794 800 802 804 804 806 808 810 812 814 817 819 821 824 825 826 827 827 828
777 803 840 833 845 840 824 820 804 790 784 780 778 775 768 763 763 762 759 761 766 769 771 771 774 774 777 773 784 793 792 796 798 799 800 802 804 805 808 811 813 815 817 820 823 824 825 825 825
783 796 837 839 850 840 815 816 794 777 774 774 775 771 767 766 765 763 761 759 761 765 769 771 774 776 777 777 783 791 787 790 792 794 795 798 799 801 804 807 809 811 814 817 819 821 822 823 823
786 801 796 835 841 840 832 808 781 779 777 772 772 768 770 768 767 764 762 761 761 765 769 770 771 773 776 779 784 785 784 788 789 791 792 793 796 797 800 803 806 807 810 813 815 817 819 820 821
766 783 810 827 837 834 834 826 813 780 776 771 772 775 773 768 762 759 758 760 763 765 767 770 772 772 773 776 778 781 785 786 787 789 789 789 792 794 797 799 801 804 806 808 811 813 816 817 818
786 796 813 821 833 843 847 828 785 778 772 769 773 773 771 765 758 756 757 759 761 765 765 767 769 772 772 772 776 779 782 784 785 785 787 786 788 791 793 797 798 800 803 805 807 810 812 814 815
776 787 806 828 824 842 839 821 780 777 770 769 772 772 768 763 759 757 759 760 761 764 764 764 767 770 770 771 772 774 779 781 781 782 783 782 784 788 790 793 794 797 800 802 804 808 809 811 811
Wind_Speed
10 10 6 2 3 4 3 3 2 4 1 3 7 2 3 3 3 3 7 17 33 35 30 25 23 21 19 23 24 26 27 27 26 23 21 20 18 18 15 15 15 15 15 13 13 13 15 16 17
9 5 2 1 4 3 2 4 4 2 3 4 4 2 3 3 4 9 15 18 35 36 30 26 23 22 20 21 22 22 20 21 22 21 20 17 16 16 14 14 13 13 13 13 12 12 13 14 15
7 2 2 3 3 3 4 4 4 1 5 4 3 4 2 3 7 16 10 27 36 34 30 26 24 22 20 20 20 20 19 18 17 18 18 16 15 14 12 12 11 12 11 11 11 10 11 12 12
3 1 2 4 1 1 2 6 3 3 5 5 3 5 4 7 13 12 26 33 35 33 29 25 23 20 19 20 20 19 18 17 16 15 14 14 13 11 10 10 11 11 10 9 9 11 11 9 8
1 2 4 2 3 2 1 1 3 2 1 1 2 3 4 2 10 25 30 32 35 32 28 24 23 21 19 19 19 19 18 17 16 14 13 12 11 9 9 9 9 8 8 8 9 9 10 8 9
3 2 3 1 2 3 4 4 3 1 1 3 4 5 3 12 23 25 32 31 32 32 29 24 22 22 21 20 20 19 19 17 16 14 13 11 10 9 9 8 8 8 8 8 9 10 10 9 10
3 3 2 1 3 1 2 7 4 4 5 1 4 4 2 4 19 24 28 28 30 29 29 25 23 21 21 20 19 19 18 17 15 14 12 10 10 9 9 10 9 9 10 8 9 10 9 10 10
2 3 2 3 4 3 5 5 6 6 4 4 2 5 5 10 23 25 24 26 27 28 27 27 24 22 23 22 19 19 17 16 15 13 12 11 10 10 10 10 11 10 10 9 10 9 9 8 7
4 3 2 3 3 3 4 4 2 3 5 3 6 5 8 29 26 26 23 22 24 25 27 28 26 25 23 23 22 19 17 17 16 14 12 12 12 12 12 11 11 10 10 9 9 9 8 7 7
3 3 6 2 5 5 7 6 11 5 3 3 4 8 26 28 27 24 23 21 24 26 27 28 28 27 25 23 22 20 19 17 16 14 13 13 12 12 12 11 11 10 11 10 8 8 7 6 8
3 4 4 3 3 5 8 3 5 8 3 7 10 16 20 23 21 19 21 25 28 27 29 30 29 28 27 26 24 22 20 19 18 15 14 13 13 12 13 12 10 12 13 11 9 7 8 8 8
2 6 4 4 5 4 5 4 5 8 4 6 12 21 19 18 17 22 22 22 23 25 28 32 31 29 28 26 25 23 22 20 18 16 14 15 13 13 12 12 13 12 12 13 13 11 10 9 8
1 3 4 6 5 3 6 3 2 7 2 7 16 18 20 17 20 19 17 16 24 27 30 33 33 32 30 28 26 24 23 21 18 16 14 14 14 13 13 14 13 12 10 13 15 14 13 11 10
4 7 8 4 4 2 6 2 3 1 6 8 16 18 16 18 21 19 23 27 29 34 33 33 34 33 31 29 26 25 23 22 20 18 15 14 14 13 11 10 13 15 13 10 14 14 14 14 13
5 6 4 5 4 6 6 3 4 1 7 8 9 10 11 13 21 26 31 33 36 33 32 33 35 35 33 31 28 26 24 23 22 20 17 16 14 14 13 12 12 13 13 13 12 15 13 12 14
4 5 5 5 1 3 7 11 3 6 10 7 8 8 10 13 19 21 23 24 30 27 35 36 35 36 35 33 31 28 26 24 22 21 19 18 17 15 15 13 12 11 10 11 11 11 11 11 12
7 2 4 11 2 1 3 5 4 3 6 6 5 6 9 9 9 19 24 29 28 34 36 31 36 36 37 34 32 29 26 23 22 20 18 18 17 17 16 14 13 10 10 10 10 10 9 10 11
4 4 3 5 5 2 3 2 2 2 5 6 7 8 11 8 15 18 27 30 29 32 33 37 37 37 35 33 31 29 25 24 22 21 18 15 17 16 15 14 12 10 10 12 12 10 10 12 10
2 2 4 5 6 5 6 3 2 5 4 7 7 8 8 12 7 15 26 26 31 30 32 36 35 34 35 35 31 29 27 26 23 23 22 18 18 18 17 14 12 10 11 10 13 13 12 10 8
3 3 7 7 4 1 6 3 3 2 4 3 7 9 9 6 8 12 22 27 29 33 33 33 38 38 39 36 35 29 30 25 25 22 20 19 18 19 19 16 14 13 12 13 13 11 9 7 9
4 5 5 6 1 4 5 4 5 4 4 7 5 6 7 8 11 9 11 16 22 29 33 33 34 35 37 35 32 25 23 22 23 23 22 21 20 20 21 19 17 14 13 13 12 13 13 9 6
3 6 4 6 3 1 2 3 5 4 7 7 9 9 7 8 10 11 5 9 14 21 29 31 27 29 32 32 33 31 29 22 29 28 25 22 20 21 22 21 20 18 16 15 13 12 14 14 11
8 4 3 1 3 3 7 4 6 4 5 9 8 9 12 8 7 12 2 6 9 13 20 24 20 21 26 19 31 31 30 28 23 24 21 22 21 20 20 20 21 19 17 15 14 12 14 13 15
3 2 6 4 3 3 5 2 5 4 6 5 4 8 10 12 10 5 7 6 3 10 22 25 27 21 19 26 20 25 30 28 23 23 18 22 24 23 20 21 20 20 19 17 15 15 13 13 13
5 6 4 5 5 4 4 2 9 6 7 8 5 6 7 8 7 2 5 7 10 14 15 20 23 23 19 14 13 28 28 25 27 24 21 23 24 25 24 23 23 23 22 19 17 15 15 14 15
2 7 5 4 2 4 4 2 6 5 4 8 3 7 4 7 6 7 5 10 12 13 15 17 15 15 23 26 33 34 25 25 26 23 22 23 25 26 26 26 23 23 23 20 19 16 15 13 14
2 2 4 7 3 2 3 6 8 1 5 7 5 3 5 7 7 8 6 11 14 18 18 16 10 11 16 27 25 15 15 20 25 23 21 22 24 23 24 24 26 25 24 21 20 20 19 17 16
4 6 4 3 2 2 4 5 5 2 6 4 3 5 3 8 8 3 5 9 14 15 16 12 9 12 13 18 17 12 13 18 20 20 21 22 22 21 21 23 22 23 24 22 21 21 20 18 19
3 3 6 5 3 4 1 6 5 3 6 1 4 5 6 8 8 6 5 3 9 11 9 9 12 16 16 17 16 17 21 18 15 18 22 20 22 23 23 21 22 23 24 22 20 22 21 20 20
2 3 4 5 3 1 3 6 3 8 7 4 3 7 8 6 6 6 6 4 7 7 8 10 8 13 19 17 17 19 17 17 21 26 31 27 24 22 22 21 19 19 21 23 23 23 24 23 22
Wind_Direction
146 137 155 135 53 67 14 22 297 330 75 216 134 150 181 56 141 194 157 159 155 155 155 160 157 153 152 155 153 154 153 156 159 158 157 152 143 137 138 131 125 126 128 126 128 129 126 127 125
152 152 119 55 82 74 188 266 305 352 147 117 85 87 54 85 78 124 134 171 160 158 157 159 161 158 156 154 160 159 158 159 162 165 162 154 146 147 148 142 140 137 135 135 135 139 135 130 132
161 196 81 95 91 132 174 221 225 226 85 144 101 59 61 89 114 148 161 163 161 159 162 160 162 163 159 157 160 163 164 161 161 167 163 161 158 157 161 156 153 152 151 147 146 146 140 134 134
192 217 40 71 35 242 234 198 194 146 76 58 94 66 82 263 151 171 154 160 161 160 163 161 162 162 163 163 163 164 166 165 170 175 172 174 177 181 180 176 169 173 165 167 170 166 169 154 145
341 45 63 61 288 229 212 100 29 10 59 45 92 106 89 42 152 149 154 162 163 162 163 166 169 165 167 169 168 170 171 171 175 179 178 177 180 180 186 191 185 197 198 199 205 207 207 208 191
48 71 48 122 269 335 124 121 120 263 89 48 84 95 111 137 138 147 156 164 167 163 164 166 174 171 172 175 173 175 175 177 180 184 185 188 193 195 201 209 209 219 231 228 225 226 228 220 200
113 105 221 214 145 192 226 145 177 183 141 210 138 88 62 147 145 148 156 166 168 167 169 170 176 178 178 179 178 180 178 183 190 190 192 202 202 200 209 220 227 235 240 241 242 241 240 229 214
152 97 298 225 175 223 202 138 168 181 144 118 88 166 181 174 151 151 160 164 168 171 175 176 179 183 186 183 184 188 190 192 197 201 197 208 212 215 220 228 231 235 233 232 237 233 235 232 225
133 56 273 250 124 216 180 160 176 21 112 152 166 163 159 149 146 145 154 163 171 178 183 185 184 189 192 189 189 197 198 201 204 208 209 212 217 220 231 233 241 233 229 228 237 230 222 219 215
102 120 231 220 168 186 188 179 160 166 164 180 127 87 133 145 151 152 162 171 178 183 188 191 191 193 195 193 193 201 201 204 209 214 213 225 227 228 234 237 242 233 233 231 238 228 229 214 213
172 183 208 264 178 146 204 219 158 124 233 212 164 149 150 154 161 167 176 181 184 187 190 193 194 195 195 198 198 203 202 208 214 218 218 224 230 235 235 239 237 244 239 235 232 224 222 219 224
19 260 199 232 208 163 169 171 173 188 213 218 157 160 156 167 171 178 183 184 183 188 195 197 196 197 199 202 204 207 208 213 218 220 222 227 230 234 236 241 242 246 248 240 233 236 234 226 226
83 277 291 303 252 170 124 46 278 236 57 125 144 162 170 176 178 183 177 187 190 195 203 204 199 202 201 205 209 211 213 215 220 221 220 226 229 235 241 246 246 244 251 247 237 241 241 236 232
315 297 283 293 245 226 152 146 58 195 123 127 157 172 177 180 184 171 176 194 199 205 204 208 205 205 204 207 211 215 217 218 220 223 220 222 228 238 247 243 244 246 260 266 243 246 248 241 238
276 289 315 228 221 209 129 283 200 162 131 142 167 173 183 191 186 191 190 195 203 203 204 213 211 207 208 209 213 216 218 220 222 225 225 224 227 233 246 244 251 253 256 252 245 242 247 244 235
358 46 8 314 152 235 136 253 38 167 142 148 156 185 192 205 205 200 200 208 205 201 206 213 212 212 211 213 216 219 221 224 225 230 233 231 230 232 243 251 259 251 256 247 233 240 244 242 242
5 304 334 330 276 162 151 272 339 103 123 166 163 179 216 209 212 204 206 203 206 211 209 212 211 213 212 213 217 223 225 227 232 238 240 243 234 234 242 247 255 263 252 237 233 244 250 255 248
304 344 304 237 295 17 100 6 23 70 177 196 214 209 220 205 226 203 209 211 209 212 210 212 211 211 213 213 218 224 228 235 236 240 239 239 231 233 234 240 250 260 251 229 234 244 247 252 258
299 245 264 256 266 219 88 91 64 227 262 247 248 252 233 214 212 204 218 214 217 215 212 219 213 214 213 214 217 224 229 231 233 227 234 238 238 234 235 240 246 253 248 251 240 244 249 258 248
207 287 285 290 328 102 96 65 331 219 248 285 272 258 245 204 211 200 205 209 206 210 214 216 220 217 218 216 217 217 218 221 224 226 228 228 232 235 233 234 242 249 258 253 236 219 231 247 237
219 200 234 234 5 62 115 6 320 288 353 331 349 277 268 229 230 225 210 211 205 207 210 217 219 217 216 217 215 209 211 218 220 225 229 227 231 235 238 237 239 246 258 257 257 234 233 238 252
297 214 238 270 76 231 53 258 281 310 319 322 313 323 293 262 254 262 167 183 231 216 215 217 216 216 217 217 216 212 209 204 223 227 231 231 233 233 238 244 237 240 253 257 250 247 243 243 256
227 177 205 19 92 110 355 84 267 26 279 275 279 290 294 307 269 263 190 218 262 234 197 202 207 208 207 228 219 223 230 227 230 230 231 231 231 235 237 238 231 238 249 246 246 249 235 245 241
122 97 44 55 62 37 324 91 274 193 212 286 277 274 296 305 309 251 148 152 156 188 193 194 194 183 180 220 242 236 228 232 231 234 233 236 232 232 236 231 233 240 241 244 248 250 244 239 244
75 55 356 3 7 227 336 47 245 178 215 232 280 331 293 314 318 229 152 152 161 164 165 179 191 199 202 210 263 265 240 241 245 242 244 244 233 231 231 232 232 232 230 240 250 246 246 245 249
125 147 151 198 226 267 319 284 271 189 255 275 268 252 259 295 296 282 209 174 170 181 188 189 209 220 223 220 235 250 232 237 241 247 250 254 246 239 236 234 232 233 232 235 239 246 247 252 256
131 73 162 101 8 35 290 293 303 350 285 289 359 40 235 286 275 260 229 201 175 177 182 185 202 228 211 207 221 242 234 243 242 248 256 263 250 246 238 240 238 234 233 232 236 244 251 256 263
104 148 62 22 133 281 298 288 241 315 291 301 86 91 229 269 273 68 130 196 201 194 202 210 202 214 209 210 234 259 256 259 255 256 262 265 253 244 244 242 238 236 236 233 239 245 247 253 263
37 45 53 111 112 156 252 271 222 246 226 208 27 0 334 325 336 8 79 162 193 196 206 228 222 218 227 225 232 260 258 251 268 269 272 272 254 248 244 245 236 249 242 231 242 240 245 250 258
20 106 115 112 239 69 152 272 313 252 235 134 31 4 344 339 4 15 43 134 178 200 213 220 254 238 246 249 245 246 258 266 278 291 291 280 260 246 245 241 240 239 242 242 244 242 247 252 255